Location: New Town
(33.2710°N, 90.7534°W)
Time: 12:37:15
(UTC+00:00)

Explorer 11/Cluster Stage 4 - Pass Details

Date: 13 May 2021
Orbit: 467 x 1257 km, 28.8° (Epoch: 14 June)

Event Time Altitude Azimuth Distance (km) Brightness Sun altitude
Rises 00:07:55 0° 208° (SSW) 3,953 10.3 8.3°
Reaches altitude 10° 00:11:30 10° 192° (SSW) 3,094 9.6 7.5°
Maximum altitude 00:16:51 20° 149° (SSE) 2,522 8.8 6.5°
Drops below altitude 10° 00:22:22 10° 107° (ESE) 3,227 9.1 5.4°
Sets 00:26:12 0° 92° (E) 4,175 9.7 4.6°
